Location: Bernay
(48.6766°N, 2.9386°E)
Time: 08:20:05
(UTC+00:00)

USA 267 - Pass Details

Date: 12 January 2026
Orbit: 1101 x 1107 km, 123.0° (Epoch: 10 January)

Event Time Altitude Azimuth Distance (km) Brightness Sun altitude
Exits shadow 16:58:51 - 89° (E) 3,428 5.3 -7.0°
Reaches altitude 10° 17:00:06 10° 87° (E) 2,963 4.9 -7.2°
Maximum altitude 17:06:20 50° 14° (NNE) 1,385 3.6 -8.2°
Drops below altitude 10° 17:12:35 10° 302° (WNW) 2,964 6.0 -9.1°
Sets 17:15:08 0° 298° (WNW) 3,923 6.8 -9.5°
